Theta_e
303 302 301 300 299 300 299 300 297 299 299 301 303 304 305 305 305 305 304 305 305 304 306 307 308 308 308 308 308 306 304 304 305 307 307 307 307 308 309 308 309 309 307 308
299 302 301 299 300 301 301 301 301 300 299 305 306 306 304 304 304 303 304 304 304 306 306 306 306 306 305 305 303 303 302 301 302 303 304 304 305 305 305 305 307 307 304 305
297 301 301 297 302 301 301 302 301 296 301 304 303 303 303 303 304 304 303 304 305 306 306 306 305 305 302 300 301 301 301 301 301 302 302 302 303 305 304 304 304 303 303 304
297 300 291 302 306 303 301 302 303 302 303 304 304 305 304 306 304 304 304 305 306 305 306 305 304 300 300 300 300 300 300 300 301 302 302 302 303 303 304 303 303 303 303 304
297 296 299 300 304 301 297 298 304 303 303 304 305 304 304 306 307 305 305 307 306 306 305 305 300 300 299 299 300 300 300 300 301 302 302 303 302 304 305 304 302 302 304 304
299 293 290 301 305 305 303 295 305 304 304 304 304 298 300 307 307 306 308 308 306 306 305 300 299 300 299 298 298 298 300 301 302 303 302 304 305 305 305 304 303 303 303 306
297 295 298 305 307 306 292 297 306 306 306 306 302 303 307 308 306 307 308 306 306 306 300 299 300 299 298 298 298 301 302 302 302 303 305 306 306 305 303 303 303 303 302 304
299 295 292 308 305 296 305 309 309 308 308 306 307 307 307 306 305 306 306 304 304 300 299 300 300 300 298 298 301 302 303 303 304 305 306 305 305 304 303 302 301 301 302 302
302 301 310 310 308 310 311 309 309 309 309 308 307 305 305 304 305 306 304 304 303 300 299 299 300 300 298 299 301 302 303 304 304 305 304 304 303 302 299 300 301 301 302 302
302 304 306 309 311 311 311 310 310 310 310 308 306 306 304 305 306 304 304 301 302 300 299 297 299 300 300 300 302 302 304 304 304 303 304 305 304 300 299 299 298 300 303 304
303 306 307 309 309 309 310 311 309 310 309 307 306 305 305 306 305 304 302 302 301 299 298 298 299 300 301 301 302 302 304 304 303 304 304 303 303 302 298 298 294 296 301 302
301 308 308 307 309 310 309 309 309 308 307 307 307 306 307 304 305 303 301 302 300 299 299 298 299 300 302 302 302 303 304 304 305 305 302 301 301 301 294 294 294 291 291 294
308 311 310 310 311 311 310 310 309 308 308 305 307 308 306 305 304 303 301 301 299 299 299 298 299 299 302 302 302 304 306 306 308 302 300 300 300 299 299 301 297 293 293 293
312 312 307 309 309 311 311 310 309 309 307 307 308 309 307 306 304 301 300 300 300 298 298 299 298 298 301 302 302 304 306 302 307 305 301 301 301 301 302 300 301 303 297 296
311 312 311 311 311 310 309 309 307 305 305 306 308 308 307 304 301 300 302 300 298 298 298 298 298 298 301 302 303 304 307 306 306 306 303 302 305 304 302 302 304 305 307 303
310 310 311 309 308 307 307 307 303 304 305 306 307 308 307 305 301 301 301 298 296 296 297 297 297 299 301 302 303 304 305 301 302 306 304 305 306 305 303 303 305 305 304 305
308 307 308 307 306 305 305 304 304 304 306 307 308 308 307 303 300 301 299 298 298 298 298 298 298 300 300 302 303 303 302 305 299 305 305 306 306 306 307 306 304 304 304 299
312 312 312 309 307 305 304 305 305 305 306 309 309 307 306 301 299 299 298 298 298 298 299 298 299 298 301 302 304 302 301 304 305 304 306 306 306 308 308 307 306 306 307 303
312 311 308 307 306 305 305 305 306 307 309 309 308 306 306 301 300 300 299 297 296 296 297 298 297 298 301 302 301 302 302 302 304 304 305 302 307 308 308 308 307 307 306 306
311 309 308 306 305 306 305 306 307 307 309 309 308 306 305 301 301 301 300 296 297 297 298 298 298 299 300 302 297 302 302 301 302 303 305 306 306 307 308 302 307 307 306 305
308 308 306 305 305 306 306 308 307 307 308 309 307 305 303 301 301 301 299 295 298 298 297 296 298 299 301 298 302 303 304 303 301 301 304 304 306 307 308 308 308 307 306 305
309 307 306 306 306 306 308 309 308 309 308 308 307 305 302 300 300 300 301 297 299 293 295 298 298 291 295 292 303 302 303 302 302 302 302 303 304 306 308 309 308 309 307 305
309 308 307 306 307 307 308 308 308 309 308 306 306 303 300 301 301 299 297 300 299 295 298 298 289 286 287 302 302 302 303 301 301 301 301 303 304 305 307 308 309 309 308 305
310 309 308 310 309 308 307 308 309 310 307 306 306 302 301 300 300 303 302 297 292 292 297 293 292 287 288 302 302 301 301 301 301 301 302 295 303 304 307 307 306 308 305 303
310 310 309 309 308 306 307 309 309 309 308 306 303 301 302 302 299 300 301 299 294 296 300 291 289 290 301 301 301 301 300 300 301 303 302 302 302 303 303 304 303 303 304 305
311 310 310 309 307 306 306 307 306 307 306 304 301 302 301 301 301 300 299 296 300 296 301 301 300 302 302 301 301 301 301 300 302 302 302 302 302 302 302 303 303 304 305 307
309 300 305 306 307 308 309 306 306 305 304 301 300 300 300 300 299 297 294 299 301 303 302 302 301 299 302 301 301 301 301 300 296 302 302 302 302 302 303 305 304 304 306 309
Wind_Speed
12 12 12 13 13 13 14 14 14 17 19 18 15 17 16 20 20 20 22 21 22 23 22 23 22 21 19 17 16 16 16 17 16 17 18 16 16 16 15 14 14 16 13 16
13 14 13 15 15 14 14 14 15 16 18 14 16 15 18 20 21 21 21 24 25 23 26 24 23 20 15 15 15 14 16 16 16 16 16 15 15 15 14 14 14 13 13 14
12 6 8 13 10 9 10 7 10 14 16 15 16 16 18 21 21 20 24 25 22 23 19 17 19 15 17 16 14 15 15 15 16 15 15 14 15 15 14 14 13 12 13 13
11 12 13 4 4 4 7 10 10 13 15 14 15 16 19 19 20 23 23 22 20 20 18 17 15 16 15 15 15 15 15 15 15 15 14 14 15 13 14 11 12 11 12 12
8 10 13 13 6 1 4 11 14 11 10 16 16 18 18 16 21 22 23 19 20 16 19 17 15 16 15 16 15 15 15 15 14 14 14 14 13 14 11 10 9 11 12 13
10 10 8 5 7 4 3 8 5 6 13 16 16 12 14 21 21 22 20 21 15 19 16 14 15 14 14 15 15 15 14 14 14 14 13 14 13 11 9 8 11 9 11 11
11 11 10 6 10 4 4 4 9 13 15 16 14 15 20 21 22 21 20 19 19 16 14 14 14 14 15 15 15 15 15 13 13 12 13 12 10 8 9 10 10 10 10 10
7 12 13 11 10 4 4 10 12 13 14 15 17 19 20 21 22 21 22 19 18 13 14 14 14 14 14 15 15 15 14 13 12 10 8 7 9 9 9 9 10 9 9 8
5 2 4 5 5 3 8 12 13 13 13 16 17 19 21 21 18 21 16 17 13 13 15 14 14 13 14 15 15 15 13 9 8 8 8 8 8 6 7 7 6 6 5 6
6 5 6 9 9 8 9 9 10 11 14 15 17 19 20 19 19 15 18 15 13 15 14 14 14 15 13 14 14 14 11 9 9 8 9 6 3 3 5 5 5 5 4 4
12 13 11 10 6 5 6 8 10 11 13 15 17 18 18 18 17 16 15 14 13 13 12 14 14 15 14 13 13 13 8 8 8 7 7 7 5 3 3 4 5 5 3 4
8 6 3 4 2 4 6 9 10 11 13 15 14 15 18 14 13 13 15 13 11 13 13 13 14 15 15 12 13 13 8 6 7 6 6 6 6 6 4 2 8 6 6 3
9 3 4 3 3 7 7 8 10 11 13 14 13 15 14 13 14 14 14 13 12 14 13 13 13 14 16 13 13 14 11 9 8 5 6 6 6 6 6 5 4 13 12 14
8 6 6 8 6 3 6 7 7 11 12 11 13 14 11 14 15 12 12 11 12 12 12 12 12 13 14 13 12 12 11 9 7 6 4 5 6 5 5 6 6 7 12 10
11 9 8 3 3 6 4 7 10 11 11 11 12 14 15 16 14 12 10 10 11 11 11 12 12 12 13 13 12 12 9 9 9 7 6 5 4 4 5 5 5 5 6 8
12 10 10 8 7 3 7 9 11 11 11 11 13 14 15 13 11 10 9 10 11 11 12 11 11 12 12 11 11 9 9 7 9 6 6 7 5 5 4 4 6 6 6 6
13 11 9 8 5 3 6 7 9 11 10 11 12 13 14 13 11 11 8 10 10 10 10 10 11 11 11 11 10 7 7 6 7 4 5 6 5 5 5 5 5 6 5 5
9 9 7 2 2 4 6 7 9 10 9 10 11 12 13 11 10 10 7 10 9 9 8 10 10 11 10 9 10 6 6 6 5 5 5 4 5 4 5 5 6 6 7 7
11 8 6 4 2 2 6 7 8 8 7 9 11 13 12 10 8 8 6 9 9 10 10 11 13 11 10 9 9 5 5 7 4 3 4 4 4 4 5 6 5 7 7 6
11 8 6 4 4 4 6 7 8 8 7 9 11 13 12 10 9 8 6 7 7 6 10 10 10 8 9 9 9 5 5 4 6 4 3 4 3 3 6 6 6 6 6 6
10 8 6 7 3 2 4 6 7 8 8 9 11 12 11 9 9 8 7 6 8 8 10 10 7 6 6 7 7 5 7 5 2 3 4 3 3 3 3 6 5 7 6 5
9 8 6 5 4 5 5 6 7 6 7 10 11 11 10 9 9 8 6 4 6 9 6 5 5 6 5 10 5 5 6 5 4 3 3 2 3 3 3 5 5 5 7 5
7 6 5 4 4 5 6 6 6 6 8 8 11 10 8 6 6 6 6 7 6 8 5 5 6 6 6 4 5 5 6 5 4 3 3 3 3 3 3 5 5 5 7 4
6 6 4 2 3 6 8 6 6 6 4 5 9 7 6 6 6 4 5 6 8 7 4 4 5 6 6 4 4 4 5 5 3 3 3 5 4 3 3 5 5 4 4 3
6 5 3 5 6 6 4 3 5 8 2 5 6 4 6 5 4 6 5 4 6 6 4 4 6 7 5 5 4 5 4 4 5 3 4 4 4 5 5 5 3 2 2 2
5 5 3 4 4 5 5 4 5 6 7 7 6 3 4 4 4 4 4 5 4 4 3 3 4 5 5 5 5 5 4 5 4 4 4 4 5 5 5 4 3 1 1 3
5 2 5 5 5 4 2 6 5 7 7 5 5 4 4 4 4 4 5 4 5 0 3 2 3 5 5 5 5 4 4 4 6 5 4 4 4 4 4 4 3 3 4 7
Wind_Direction
263 284 286 278 275 279 275 275 277 289 301 314 330 338 327 327 320 319 322 328 336 328 333 337 325 327 324 324 323 324 308 299 295 296 296 287 289 286 281 278 277 274 287 291
281 266 261 278 278 276 271 273 275 291 299 327 334 323 326 321 325 333 326 329 327 342 331 324 330 325 321 317 312 301 293 289 290 286 283 282 282 280 281 279 273 272 272 274
283 273 282 278 292 249 292 289 293 293 316 321 320 323 324 320 328 330 334 326 340 332 322 333 330 329 328 310 300 292 287 287 285 284 281 280 278 276 273 271 272 265 262 261
271 290 276 70 88 348 294 289 298 297 313 321 311 323 317 321 335 333 327 335 338 328 328 329 335 323 307 302 298 293 288 285 283 282 277 276 275 272 272 268 265 263 261 256
264 281 305 258 162 67 87 297 300 291 325 305 319 313 309 338 337 327 333 344 334 331 328 340 322 308 305 303 302 297 292 289 286 286 283 280 278 275 269 269 267 264 261 258
269 273 276 33 112 83 317 281 56 302 314 314 315 309 318 332 326 337 340 340 334 334 341 324 312 310 307 304 301 297 296 293 290 287 281 281 278 279 277 264 266 262 267 269
242 251 257 102 130 137 255 303 343 320 311 319 316 316 319 323 337 331 348 332 343 339 331 318 312 310 304 303 301 301 297 290 290 285 281 275 278 278 277 276 276 272 264 275
248 264 273 115 134 201 283 319 302 310 313 313 316 316 321 333 330 342 337 341 342 341 321 316 311 312 311 310 311 307 300 295 292 294 308 311 300 296 291 283 273 272 269 266
189 266 113 194 248 282 282 303 309 312 316 309 314 324 332 332 333 342 343 346 337 325 315 316 317 320 314 315 316 314 310 311 315 312 298 296 289 303 308 298 284 264 257 264
268 264 277 227 246 270 278 294 317 307 299 327 322 330 332 325 342 342 346 328 338 320 316 317 319 319 317 317 319 318 326 330 323 322 321 324 318 308 318 312 317 303 292 286
255 263 257 245 256 308 304 308 299 309 327 325 329 332 328 337 337 341 338 322 326 318 316 317 320 319 324 322 324 322 328 324 326 321 323 328 335 306 334 335 294 308 325 310
258 324 277 260 304 288 290 298 317 324 326 327 331 327 329 341 331 339 333 320 322 319 318 322 320 323 328 333 330 323 311 318 328 325 357 347 339 344 199 242 360 326 316 291
250 262 225 279 291 283 293 315 328 329 319 323 336 325 346 322 342 341 328 327 326 320 321 320 323 323 330 334 329 330 340 353 327 28 357 350 353 353 360 356 354 36 37 51
225 184 225 230 249 340 312 318 315 307 312 334 335 332 340 336 345 338 328 333 326 321 319 324 326 324 330 328 324 326 326 320 336 8 12 344 350 355 13 16 22 40 42 54
205 200 249 288 261 259 288 303 307 322 332 335 337 335 342 350 339 331 333 341 325 318 327 332 329 326 330 327 325 329 333 347 347 355 17 330 344 18 21 12 16 35 53 54
200 197 217 231 254 298 297 325 328 328 328 336 329 349 336 354 335 325 351 336 327 330 330 330 327 326 329 326 332 334 338 339 330 3 358 359 14 31 24 22 29 42 31 29
199 194 217 233 249 274 326 335 336 328 327 330 340 342 337 354 332 335 357 333 322 321 327 329 326 330 322 330 335 339 332 341 337 1 7 2 8 41 41 49 45 52 44 33
195 212 203 236 326 319 324 328 326 334 342 334 331 333 345 348 335 330 348 328 323 331 336 334 328 328 322 333 339 344 332 342 349 359 339 24 7 45 62 62 56 57 63 50
191 189 179 170 174 312 321 330 337 335 328 335 329 332 346 348 339 324 352 328 330 334 337 327 330 326 326 351 340 334 345 337 354 7 354 337 41 12 67 76 67 62 66 60
181 176 174 191 162 225 323 325 336 326 328 338 330 332 347 341 339 329 349 326 317 326 325 323 326 329 326 337 344 327 335 339 343 343 33 8 61 60 82 57 80 78 68 65
172 173 192 203 226 268 272 331 328 325 336 327 334 337 348 330 339 326 337 330 338 336 327 317 330 335 325 337 328 356 342 12 8 341 354 14 70 49 74 74 86 99 91 82
167 180 200 226 242 299 326 343 324 322 324 332 334 350 341 330 337 334 338 316 330 334 321 324 339 337 321 323 351 2 359 23 1 12 21 28 59 71 70 79 73 91 104 107
171 181 203 237 275 334 325 313 318 320 336 352 332 351 333 332 327 330 332 348 340 335 324 344 332 320 326 343 355 353 10 27 13 11 25 42 57 69 55 50 87 105 119 132
176 183 217 257 276 288 295 339 344 310 28 328 360 351 341 328 333 357 335 348 340 338 349 345 334 328 323 359 3 4 19 11 357 10 48 42 55 49 53 85 96 119 127 124
189 209 259 275 275 279 1 294 294 266 346 6 25 335 352 332 320 334 347 331 338 348 357 5 352 342 9 11 16 22 15 11 10 51 53 45 54 70 69 77 92 108 120 181
197 229 284 24 333 320 320 319 329 348 11 359 348 39 353 331 348 346 339 327 331 329 28 20 10 355 13 22 27 20 24 8 32 44 54 55 59 64 75 84 87 302 251 248
203 228 239 213 209 194 24 14 324 11 10 354 346 37 340 351 358 344 326 339 312 282 62 51 27 22 7 8 39 25 19 45 40 46 55 58 50 44 53 96 132 230 250 252